Regional Weather Roundup
Issued by NWS

Home | Current Version | Previous Version | Text Only | Print | Product List | Glossary On
Versions: 1 2 3 4 5 6 7 8 9 10 11 12 13 14 15 16 17 18 19 20 21 22 23 24 25 26 27 28 29 30 31 32 33 34 35 36 37 38 39 40 41 42 43 44 45 46 47 48 49 50
000
ASUS44 KEWX 240603
RWRTX
SOUTH TEXAS REGIONAL WEATHER ROUNDUP
NATIONAL WEATHER SERVICE AUSTIN/SAN ANTONIO TX
1200 AM CST FRI FEB 24 2017

NOTE: "FAIR" INDICATED FEW OR NO CLOUDS BELOW 12,000 FEET WITH NO
SIGNIFICANT WEATHER AND/OR OBSTRUCTIONS TO VISIBILITY.

* - THESE STATIONS ARE NOT NWS OR FAA STATIONS...AND ARE NOT SUBJECT
    TO NWS AND FAA QUALITY CONTROL.

TXZ171-172-183>190-240700-
TEXAS HILL COUNTRY AND EDWARDS PLATEAU

CITY           SKY/WX    TMP DP  RH WIND       PRES   REMARKS
JUNCTION       CLEAR     62  42  47 CALM      29.69R
6HR MIN TEMP:  59; 6HR MAX TEMP:  88;

*LLANO         CLEAR     70  57  64 CALM      29.67R
BURNET         CLEAR     67  55  65 S8        29.65R
6HR MIN TEMP:  67; 6HR MAX TEMP:  84;

*HORSESHOE BAY   N/A     68  57  68 S16G25    29.61S
6HR MIN TEMP:  68; 6HR MAX TEMP:  85;

*KERRVILLE     CLEAR     64  58  80 SE10      29.68R
6HR MIN TEMP:  63; 6HR MAX TEMP:  82;

*FREDERICKSBRG CLEAR     66  57  72 SE7       29.67S
*ROCKSPRINGS   CLEAR     64  39  39 SE9       29.69S
*BOERNE STAGE  CLEAR     61  55  82 S6        29.68F
*CASTROVILLE   CLEAR     64  58  79 E5        29.67R
HONDO          CLEAR     64  59  83 E7        29.65S
6HR MIN TEMP:  64; 6HR MAX TEMP:  88;

*UVALDE        CLEAR     63  59  85 NE9       29.64S
6HR MIN TEMP:  63; 6HR MAX TEMP:  90;

DEL RIO        PTCLDY    63  42  46 CALM      29.59R
6HR MIN TEMP:  60; 6HR MAX TEMP:  90;

LAUGHLIN AFB   PTCLDY    62  46  56 CALM      29.59R
6HR MIN TEMP:  62; 6HR MAX TEMP:  87;

CARRIZO SPRGS  CLEAR     59  41  51 CALM      29.59S
*EAGLE PASS    CLEAR     64  39  39 NE5       29.59S
$$

TXZ173-191>194-202-209-217>225-228-240700-
CENTRAL AND SOUTH CENTRAL TEXAS

CITY           SKY/WX    TMP DP  RH WIND       PRES   REMARKS
GEORGETOWN     PTCLDY    68  59  73 S13G23    29.62S
6HR MIN TEMP:  68; 6HR MAX TEMP:  84;

AUSTIN/BERGSTM PTCLDY    64  61  90 S7        29.65R
6HR MIN TEMP:  63; 6HR MAX TEMP:  84;

AUSTIN/MABRY   PTCLDY    67  32  27 VRB6      29.66R
6HR MIN TEMP:  67; 6HR MAX TEMP:  84;

*AUSTIN/EXEC     N/A    N/A N/A N/A MISG        N/A
*LAGO VISTA    PTCLDY    67  60  79 S8        29.66R
6HR MIN TEMP:  67; 6HR MAX TEMP:  84;

SAN MARCOS     CLEAR     63  61  94 S9        29.67S
6HR MIN TEMP:  63; 6HR MAX TEMP:  82;

NEW BRAUNFELS  CLEAR     60  58  92 S5        29.65S
6HR MIN TEMP:  58; 6HR MAX TEMP:  85;

RANDOLPH AFB   CLEAR     61  61 100 E3        29.66S
6HR MIN TEMP:  60; 6HR MAX TEMP:  81;

PT SAN ANTONIO CLEAR     64  59  83 E5        29.64R
6HR MIN TEMP:  64; 6HR MAX TEMP:  84;

SAN ANTONIO    CLEAR     64  59  83 E3        29.67S
6HR MIN TEMP:  63; 6HR MAX TEMP:  84;

STINSON FIELD  CLEAR     66  60  81 E3        29.64R
6HR MIN TEMP:  66; 6HR MAX TEMP:  86;

*PLEASANTON    CLEAR     66  63  90 SE6       29.63S
6HR MIN TEMP:  66; 6HR MAX TEMP:  89;

*LA GRANGE     CLOUDY    67  66  95 S9        29.64S
6HR MIN TEMP:  66; 6HR MAX TEMP:  79;

*GIDDINGS      MOCLDY   N/A N/A N/A S10       29.66S
*GONZALES      MOCLDY    66  66 100 S5        29.65S
6HR MIN TEMP:  66; 6HR MAX TEMP:  81;

$$

TXZ163>164-176>182-195>201-210>213-226-227-235-240700-
SOUTHEAST TEXAS

CITY           SKY/WX    TMP DP  RH WIND       PRES   REMARKS
COLLEGE STN    CLEAR     64  61  90 S9        29.65R
6HR MIN TEMP:  64; 6HR MAX TEMP:  79;

*BRYAN         CLEAR     64  61  93 S12       29.66S
6HR MIN TEMP:  64; 6HR MAX TEMP:  78;

*CALDWELL      NOT AVBL
*CROCKETT      CLEAR     63  59  88 S8        29.68S
*BRENHAM       CLOUDY    65  64  96 S8        29.66S
6HR MIN TEMP:  65; 6HR MAX TEMP:  79;

HUNTSVILLE     CLEAR     64  58  80 S7        29.65R
6HR MIN TEMP:  64; 6HR MAX TEMP:  79;

CONROE         CLEAR     62  60  93 SE12      29.67F
6HR MIN TEMP:  61; 6HR MAX TEMP:  74;

HOUSTON BUSH   PTCLDY    66  62  87 S12       29.67F
6HR MIN TEMP:  65; 6HR MAX TEMP:  75;

HOUSTON HOBBY  MOCLDY    66  64  93 SE7       29.68S
6HR MIN TEMP:  65; 6HR MAX TEMP:  71;

*HOUSTON SW AP CLEAR     64  63  97 SE6       29.69S
6HR MIN TEMP:  63; 6HR MAX TEMP:  71;

PEARLAND       MOCLDY    68  64  87 S8        29.69F
6HR MIN TEMP:  67; 6HR MAX TEMP:  73;

HOUSTON HOOKS  CLEAR     65  62  90 S6        29.67F
6HR MIN TEMP:  65; 6HR MAX TEMP:  76;

ELLINGTON FLD  PTCLDY    66  63  88 SE7       29.70S
SUGAR LAND     CLEAR     62  62 100 SE7       29.67S
6HR MIN TEMP:  62; 6HR MAX TEMP:  74;

*HOUSTON EXEC  CLOUDY    59  59 100 S7        29.68F
*CLEVELAND MUN CLOUDY    65  63  91 S9G17     29.68F
6HR MIN TEMP:  64; 6HR MAX TEMP:  72;

*WHARTON       CLEAR     63  61  93 SE10      29.67F
6HR MIN TEMP:  63; 6HR MAX TEMP:  72;

*COLUMBUS      CLOUDY    65  64  94 S9        29.68S
6HR MIN TEMP:  64; 6HR MAX TEMP:  74;

*EAGLE LAKE    CLEAR     64  64 100 S7        29.67F
6HR MIN TEMP:  64; 6HR MAX TEMP:  76;

$$

TXZ214>216-236>238-240700-
THE UPPER TEXAS COAST

CITY           SKY/WX    TMP DP  RH WIND       PRES   REMARKS
*ORANGE        PTCLDY    65  64  95 S7        29.74S
6HR MIN TEMP:  65; 6HR MAX TEMP:  69;

PORT ARTHUR    CLEAR     65  62  90 S9G18     29.71S
6HR MIN TEMP:  65; 6HR MAX TEMP:  69;

GALVESTON        N/A     68  66  93 S20       29.69F
6HR MIN TEMP:  68; 6HR MAX TEMP:  69;

ANGLETON       CLEAR     69  63  81 S17       29.67F
6HR MIN TEMP:  67; 6HR MAX TEMP:  72;

*BAY CITY      CLEAR     67  65  93 S8        29.67S
PALACIOS         N/A     68  65  90 S15       29.67R
6HR MIN TEMP:  68; 6HR MAX TEMP:  71;

$$

TXZ229>234-239>247-240700-
TEXAS COASTAL BEND AND RIO GRANDE PLAINS

CITY           SKY/WX    TMP DP  RH WIND       PRES   REMARKS
VICTORIA       CLOUDY    70  67  90 S10       29.67R
6HR MIN TEMP:  69; 6HR MAX TEMP:  75;

*BEEVILLE      CLEAR     67  67 100 S12       29.65S
6HR MIN TEMP:  67; 6HR MAX TEMP:  78;

ROCKPORT         N/A     70  67  90 S9        29.66S
6HR MIN TEMP:  70; 6HR MAX TEMP:  73;

*PORT ARANSAS  CLEAR     69  67  93 S12G18    29.66S
6HR MIN TEMP:  69; 6HR MAX TEMP:  72;

*PORT LAVACA   PTCLDY    67  67 100 S12       29.67S
6HR MIN TEMP:  67; 6HR MAX TEMP:  73;

*INGLESIDE     CLEAR     70  68  92 S10       29.66S
CORPUS CHRISTI CLEAR     67  66  97 SE12      29.66S
6HR MIN TEMP:  67; 6HR MAX TEMP:  76;

CORPUS NAS     CLEAR     70  69  97 S15       29.66R
6HR MIN TEMP:  69; 6HR MAX TEMP:  73;

*ROBSTOWN      CLEAR     69  69 100 SE12      29.66F
ALICE          CLEAR     66  65  96 S8        29.65S
6HR MIN TEMP:  66; 6HR MAX TEMP:  81;

KINGSVILLE NAS CLEAR     67  67 100 S8        29.66S
6HR MIN TEMP:  66; 6HR MAX TEMP:  79;

COTULLA        CLEAR     69  60  73 SE9       29.60S
6HR MIN TEMP:  69; 6HR MAX TEMP:  94;

*FAITH RANCH   CLEAR     72  43  35 S7        29.61R
LAREDO         CLEAR     72  52  49 SE13      29.61S
6HR MIN TEMP:  72; 6HR MAX TEMP:  95;

$$

TXZ248>255-240700-
DEEP SOUTH TEXAS

CITY           SKY/WX    TMP DP  RH WIND       PRES   REMARKS
BROWNSVILLE    CLEAR     67  65  93 SE6       29.69R
6HR MIN TEMP:  67; 6HR MAX TEMP:  78;

PORT ISABEL    CLEAR     67  66  97 SE8       29.68R
6HR MIN TEMP:  67; 6HR MAX TEMP:  78;

*SOUTH P



USA.gov is the U.S. government's official web portal to all federal, state and local government web resources and services.